• In Romania
  • List of Countries
  • For 7 days
  • Water Temperature
  • Satellite Maps
  • Weather Map
  • Weather Widgets
  • user-avatar
    Login

    Hourly Weather Ukraincev

    Today, 21 May, Monday

    Time Temperature Precipitation Wind Pressure Humidity
    00:00 +15°C° 0.7 mm 4 mps 748 mmHg 93%
    01:00 +15°C° 0.4 mm 4 mps 748 mmHg 94%
    02:00 +14°C° 0.4 mm 4 mps 748 mmHg 94%
    03:00 +14°C° 0 mm 4 mps 749 mmHg 95%
    04:00 +14°C° 0.4 mm 4 mps 749 mmHg 95%
    05:00 +14°C° 0.4 mm 4 mps 749 mmHg 95%
    06:00 +14°C° 0.4 mm 5 mps 749 mmHg 94%
    07:00 +14°C° 0.8 mm 5 mps 750 mmHg 94%
    08:00 +14°C° 0.8 mm 5 mps 750 mmHg 94%
    09:00 +15°C° 0 mm 4 mps 750 mmHg 93%
    10:00 +15°C° 1 mm 5 mps 751 mmHg 93%
    11:00 +15°C° 1 mm 5 mps 751 mmHg 92%
    12:00 +15°C° 1 mm 5 mps 751 mmHg 92%
    13:00 +16°C° 0.3 mm 6 mps 751 mmHg 91%
    14:00 +16°C° 0.3 mm 6 mps 751 mmHg 90%
    15:00 +16°C° 0.3 mm 6 mps 751 mmHg 89%
    16:00 +16°C° 0.2 mm 6 mps 751 mmHg 89%
    17:00 +16°C° 0.2 mm 6 mps 751 mmHg 89%
    18:00 +17°C° 0.2 mm 5 mps 751 mmHg 89%
    19:00 +16°C° 0 mm 5 mps 752 mmHg 90%
    20:00 +16°C° 0 mm 5 mps 752 mmHg 91%
    21:00 +15°C° 0 mm 6 mps 752 mmHg 92%
    22:00 +15°C° 0.1 mm 6 mps 752 mmHg 91%
    23:00 +14°C° 0.1 mm 6 mps 753 mmHg 91%

    Tomorrow, 22 May, Tuesday

    Time Temperature Precipitation Wind Pressure Humidity
    00:00 +14°C° 0.1 mm 6 mps 753 mmHg 90%
    01:00 +14°C° 0.6 mm 6 mps 753 mmHg 90%
    02:00 +13°C° 0.6 mm 6 mps 753 mmHg 91%
    03:00 +13°C° 0.6 mm 6 mps 754 mmHg 91%
    04:00 +13°C° 0.3 mm 5 mps 754 mmHg 90%
    05:00 +13°C° 0.3 mm 5 mps 754 mmHg 90%
    06:00 +12°C° 0.3 mm 5 mps 754 mmHg 89%
    07:00 +14°C° 0 mm 5 mps 754 mmHg 86%
    08:00 +15°C° 0 mm 6 mps 754 mmHg 83%
    09:00 +16°C° 0 mm 6 mps 755 mmHg 79%
    10:00 +19°C° 0 mm 6 mps 755 mmHg 77%
    11:00 +20°C° 0 mm 6 mps 755 mmHg 74%
    12:00 +22°C° 0 mm 6 mps 755 mmHg 71%
    13:00 +22°C° 0 mm 6 mps 755 mmHg 70%
    14:00 +23°C° 0 mm 6 mps 755 mmHg 70%
    15:00 +24°C° 0 mm 6 mps 755 mmHg 69%
    16:00 +23°C° 0.6 mm 5 mps 754 mmHg 73%
    17:00 +23°C° 0.6 mm 5 mps 754 mmHg 77%
    18:00 +22°C° 0.6 mm 4 mps 754 mmHg 81%
    19:00 +21°C° 0.7 mm 4 mps 754 mmHg 82%
    20:00 +20°C° 0.7 mm 4 mps 754 mmHg 82%
    21:00 +19°C° 0.7 mm 4 mps 755 mmHg 83%
    22:00 +18°C° 0.3 mm 4 mps 755 mmHg 83%
    23:00 +18°C° 0.3 mm 4 mps 755 mmHg 83%

    Day after tomorrow, 23 May, Wednesday

    Time Temperature Precipitation Wind Pressure Humidity
    00:00 +17°C° 0.3 mm 4 mps 755 mmHg 83%
    01:00 +15°C° 0.2 mm 4 mps 755 mmHg 84%
    02:00 +15°C° 0.2 mm 4 mps 755 mmHg 86%
    03:00 +14°C° 0.2 mm 4 mps 755 mmHg 88%
    04:00 +14°C° 0.2 mm 4 mps 754 mmHg 87%
    05:00 +14°C° 0.2 mm 4 mps 754 mmHg 86%
    06:00 +14°C° 0.2 mm 3 mps 754 mmHg 85%
    07:00 +16°C° 0 mm 3 mps 754 mmHg 82%
    08:00 +17°C° 0 mm 3 mps 755 mmHg 78%
    09:00 +18°C° 0 mm 4 mps 755 mmHg 75%
    10:00 +19°C° 0 mm 4 mps 755 mmHg 73%
    11:00 +21°C° 0 mm 4 mps 754 mmHg 71%
    12:00 +22°C° 0 mm 4 mps 754 mmHg 68%
    13:00 +22°C° 0 mm 4 mps 754 mmHg 68%
    14:00 +23°C° 0 mm 4 mps 754 mmHg 68%
    15:00 +25°C° 0 mm 4 mps 754 mmHg 68%
    16:00 +25°C° 0 mm 3 mps 753 mmHg 71%
    17:00 +24°C° 0 mm 3 mps 753 mmHg 73%
    18:00 +24°C° 0 mm 3 mps 753 mmHg 76%
    19:00 +23°C° 0 mm 2 mps 753 mmHg 79%
    20:00 +20°C° 0 mm 2 mps 753 mmHg 82%
    21:00 +19°C° 0 mm 2 mps 752 mmHg 85%
    22:00 +18°C° 0 mm 2 mps 752 mmHg 83%
    23:00 +18°C° 0 mm 2 mps 752 mmHg 82%

    24 May, Thursday

    Time Temperature Precipitation Wind Pressure Humidity
    00:00 +18°C° 0 mm 2 mps 752 mmHg 81%
    01:00 +18°C° 0.1 mm 2 mps 752 mmHg 81%
    02:00 +18°C° 0.1 mm 1 mps 751 mmHg 81%
    03:00 +18°C° 0.1 mm 1 mps 751 mmHg 81%
    04:00 +18°C° 0.2 mm 1 mps 751 mmHg 81%
    05:00 +19°C° 0.2 mm 1 mps 751 mmHg 81%
    06:00 +19°C° 0.2 mm 1 mps 751 mmHg 81%
    07:00 +20°C° 0.1 mm 1 mps 751 mmHg 80%
    08:00 +19°C° 0.1 mm 2 mps 751 mmHg 80%
    09:00 +20°C° 0.1 mm 2 mps 751 mmHg 80%
    10:00 +21°C° 0 mm 2 mps 750 mmHg 75%
    11:00 +23°C° 0 mm 2 mps 750 mmHg 71%
    12:00 +24°C° 0 mm 2 mps 750 mmHg 66%
    13:00 +25°C° 0.1 mm 2 mps 750 mmHg 65%
    14:00 +25°C° 0.1 mm 2 mps 749 mmHg 64%
    15:00 +25°C° 0.1 mm 2 mps 749 mmHg 63%
    16:00 +25°C° 0.1 mm 1 mps 749 mmHg 65%
    17:00 +25°C° 0.1 mm 1 mps 749 mmHg 68%
    18:00 +24°C° 0.1 mm 1 mps 748 mmHg 71%
    19:00 +23°C° 0.2 mm 1 mps 748 mmHg 73%
    20:00 +22°C° 0.2 mm 1 mps 748 mmHg 76%
    21:00 +21°C° 0.2 mm 1 mps 748 mmHg 78%
    22:00 +20°C° 0.4 mm 1 mps 748 mmHg 80%
    23:00 +19°C° 0.4 mm 2 mps 748 mmHg 83%

    25 May, Friday

    Time Temperature Precipitation Wind Pressure Humidity
    00:00 +18°C° 0.4 mm 2 mps 748 mmHg 85%
    01:00 +17°C° 0.1 mm 3 mps 748 mmHg 87%
    02:00 +17°C° 0.1 mm 3 mps 748 mmHg 89%
    03:00 +15°C° 0.1 mm 4 mps 748 mmHg 91%
    04:00 +15°C° 0 mm 5 mps 748 mmHg 91%
    05:00 +14°C° 0 mm 6 mps 748 mmHg 91%
    06:00 +14°C° 0 mm 7 mps 748 mmHg 91%
    07:00 +12°C° 0 mm 7 mps 749 mmHg 89%
    08:00 +12°C° 0 mm 7 mps 749 mmHg 87%
    09:00 +12°C° 0 mm 7 mps 749 mmHg 85%
    10:00 +12°C° 0 mm 7 mps 750 mmHg 79%
    11:00 +14°C° 0 mm 7 mps 750 mmHg 73%
    12:00 +15°C° 0 mm 7 mps 750 mmHg 67%
    13:00 +15°C° 0 mm 7 mps 750 mmHg 64%
    14:00 +15°C° 0 mm 8 mps 750 mmHg 61%
    15:00 +15°C° 0 mm 8 mps 751 mmHg 58%
    16:00 +14°C° 0 mm 7 mps 751 mmHg 59%
    17:00 +14°C° 0 mm 7 mps 751 mmHg 61%
    18:00 +12°C° 0 mm 7 mps 751 mmHg 62%
    19:00 +10°C° 0 mm 6 mps 752 mmHg 62%
    20:00 +9°C° 0 mm 6 mps 752 mmHg 62%
    21:00 +8°C° 0 mm 6 mps 753 mmHg 63%
    22:00 +7°C° 0 mm 6 mps 753 mmHg 63%
    23:00 +5°C° 0 mm 6 mps 753 mmHg 63%

    26 May, Saturday

    Time Temperature Precipitation Wind Pressure Humidity
    00:00 +5°C° 0 mm 6 mps 754 mmHg 63%
    01:00 +4°C° 0 mm 6 mps 754 mmHg 64%
    02:00 +4°C° 0 mm 6 mps 754 mmHg 65%
    03:00 +5°C° 0 mm 5 mps 754 mmHg 66%
    04:00 +4°C° 0 mm 6 mps 755 mmHg 66%
    05:00 +4°C° 0 mm 6 mps 755 mmHg 66%
    06:00 +4°C° 0 mm 6 mps 756 mmHg 67%
    07:00 +6°C° 0 mm 7 mps 756 mmHg 62%
    08:00 +8°C° 0 mm 7 mps 756 mmHg 57%
    09:00 +9°C° 0 mm 8 mps 756 mmHg 53%
    10:00 +10°C° 0 mm 8 mps 756 mmHg 51%
    11:00 +11°C° 0 mm 8 mps 756 mmHg 50%
    12:00 +12°C° 0 mm 8 mps 756 mmHg 49%
    13:00 +12°C° 0 mm 8 mps 756 mmHg 49%
    14:00 +13°C° 0 mm 8 mps 756 mmHg 49%
    15:00 +13°C° 0 mm 8 mps 756 mmHg 49%
    16:00 +14°C° 0 mm 7 mps 756 mmHg 53%
    17:00 +14°C° 0 mm 6 mps 756 mmHg 57%
    18:00 +13°C° 0 mm 5 mps 756 mmHg 61%
    19:00 +12°C° 0 mm 4 mps 757 mmHg 65%
    20:00 +10°C° 0 mm 3 mps 757 mmHg 69%
    21:00 +9°C° 0 mm 3 mps 757 mmHg 73%
    22:00 +8°C° 0 mm 3 mps 757 mmHg 74%
    23:00 +7°C° 0 mm 2 mps 757 mmHg 75%
    Show more